Tracking 22879 objects as of 20-Apr-2021
HD Live streaming from Space Station
objects crossing your sky now

SL-8 R/B

Track SL-8 R/B now!
10-day predictions


NORAD ID: 14760
Int'l Code: 1984-019B
Perigee: 758.6 km
Apogee: 799.8 km
Inclination: 74.0 °
Period: 100.3 minutes
Semi major axis: 7150 km
RCS: 4.2796 m2 (large)
Launch date: February 21, 1984
Source: Commonwealth of Independent States (former USSR) (CIS)
Launch site: PLESETSK MISSILE AND SPACE COMPLEX (PKMTR)

Note: This is a ROCKET BODY
aabbcc
Your satellite tracking list
Your tracking list is empty




NASA's NSSDC Master Catalog

Two Line Element Set (TLE):
1 14760U 84019B   21109.87270914  .00000103  00000-0  44471-4 0  9999
2 14760  74.0437  68.5194 0028864 302.1815  57.6538 14.35905015944695
Source of the keplerian elements: AFSPC